Location: Unspecified
(64.9000°N, 0.0000°E)
Time: 08:43:32
(UTC+00:00)

Altair - Pass Details

Date: 22 June 2019
Orbit: 1501 x 1683 km, 47.2° (Epoch: 17 July)

Event Time Altitude Azimuth Distance (km) Brightness Sun altitude
Rises 22:34:38 0° 245° (WSW) 4,774 10.0 -0.1°
Reaches altitude 10° 22:38:15 10° 234° (SW) 3,817 9.4 -0.2°
Maximum altitude 22:45:57 28° 181° (S) 2,730 8.3 -0.4°
Drops below altitude 10° 22:53:50 10° 129° (SE) 3,919 9.2 -0.7°
Sets 22:57:36 0° 118° (ESE) 4,922 9.7 -0.8°
